Change the Weather History Date:

Friday, November 9, 2012

  Actual Average (KPLN) Record (KPLN)
Temperature  
Mean Temperature 44 °F -  
Max Temperature 49 °F 43 °F 68 °F (1999)
Min Temperature 40 °F 31 °F 16 °F (2014)
Degree Days  
Heating Degree Days 20    
Moisture  
Dew Point 39 °F    
Average Humidity 80    
Maximum Humidity 86    
Minimum Humidity 67    
Precipitation  
Precipitation 0.00 in - - ()
Sea Level Pressure  
Sea Level Pressure 30.10 in    
Wind  
Wind Speed 4 mph (West)    
Max Wind Speed 8 mph    
Max Gust Speed -    
Visibility 9 miles    
Events      
Averages and records for this station are not official NWS values.
T = Trace of Precipitation, MM = Missing Value Source: NWS Daily Summary

Daily Weather History Graph

Daily Weather History Graph

Search for Another Location

Airport or City:

Trip Planner

Search our weather history database for the weather conditions in past years. The results will help you decide how hot, cold, wet, or windy it might be!

Date:

Astronomy

Nov. 09, 2012 Rise Set
Actual Time 7:29 AM EST 5:13 PM EST
Civil Twilight 6:58 AM EST 5:45 PM EST
Nautical Twilight 6:22 AM EST 6:20 PM EST
Astronomical Twilight 5:47 AM EST 6:55 PM EST
Moon 2:13 AM EST (11/9) 2:38 PM EST (11/9)
Length of Visible Light 10h 47m
Length of Day
9h 43m
Waning Crescent, 23% of the Moon is Illuminated
Nov 9
Waning Crescent
Nov 13
New
Nov 20
First Quarter
Nov 28
Full
Dec 6
Last Quarter

Hourly Weather History & Observations

Time (EST) Temp. Windchill Dew Point Humidity Pressure Visibility Wind Dir Wind Speed Gust Speed Precip Events Conditions
12:15 AM 43.2 °F 39.7 °F 36.5 °F 77% 30.04 in 10.0 mi SW 5.8 mph - N/A   Overcast
12:35 AM 43.2 °F 40.5 °F 36.5 °F 77% 30.04 in 10.0 mi SSW 4.6 mph - N/A   Overcast
12:55 AM 42.8 °F 40.1 °F 36.5 °F 78% 30.04 in 10.0 mi SW 4.6 mph - N/A   Mostly Cloudy
1:15 AM 42.3 °F 39.4 °F 36.5 °F 80% 30.04 in 10.0 mi SSW 4.6 mph - N/A   Mostly Cloudy
1:36 AM 41.0 °F 39.0 °F 36.1 °F 83% 30.04 in 7.0 mi SSW 3.5 mph - N/A   Scattered Clouds
1:55 AM 40.6 °F 37.5 °F 36.1 °F 84% 30.05 in 7.0 mi SSW 4.6 mph - N/A   Scattered Clouds
2:15 AM 41.7 °F 38.8 °F 37.0 °F 83% 30.05 in 7.0 mi SSW 4.6 mph - N/A   Overcast
2:35 AM 42.4 °F 39.6 °F 37.4 °F 82% 30.05 in 7.0 mi SSW 4.6 mph - N/A   Overcast
2:55 AM 42.8 °F 41.1 °F 37.6 °F 82% 30.05 in 7.0 mi SSW 3.5 mph - N/A   Overcast
3:15 AM 43.0 °F 41.3 °F 37.9 °F 82% 30.05 in 7.0 mi SSW 3.5 mph - N/A   Overcast
3:35 AM 43.5 °F 40.1 °F 38.3 °F 82% 30.05 in 7.0 mi SSW 5.8 mph - N/A   Overcast
3:55 AM 43.7 °F 40.3 °F 38.3 °F 81% 30.05 in 7.0 mi SSW 5.8 mph - N/A   Overcast
4:15 AM 43.7 °F 41.1 °F 38.3 °F 81% 30.06 in 7.0 mi SW 4.6 mph - N/A   Overcast
4:35 AM 43.7 °F 40.3 °F 38.3 °F 81% 30.06 in 7.0 mi SSW 5.8 mph - N/A   Overcast
4:55 AM 43.9 °F 41.3 °F 38.3 °F 81% 30.07 in 7.0 mi SW 4.6 mph - N/A   Overcast
5:15 AM 43.9 °F 42.3 °F 38.3 °F 81% 30.07 in 7.0 mi SW 3.5 mph - N/A   Overcast
5:35 AM 43.5 °F 41.9 °F 38.3 °F 82% 30.07 in 7.0 mi SW 3.5 mph - N/A   Overcast
5:55 AM 43.0 °F 41.3 °F 38.3 °F 84% 30.07 in 7.0 mi SSW 3.5 mph - N/A   Overcast
6:15 AM 42.8 °F 41.1 °F 38.3 °F 84% 30.07 in 7.0 mi SSW 3.5 mph - N/A   Overcast
6:35 AM 43.0 °F - 38.5 °F 84% 30.08 in 7.0 mi Calm Calm - N/A   Overcast
6:55 AM 42.8 °F - 38.7 °F 85% 30.08 in 7.0 mi Calm Calm - N/A   Overcast
7:15 AM 43.0 °F 41.3 °F 38.7 °F 85% 30.08 in 7.0 mi SW 3.5 mph - N/A   Overcast
7:35 AM 43.0 °F 41.3 °F 38.7 °F 85% 30.08 in 5.0 mi SSW 3.5 mph - N/A   Overcast
7:55 AM 43.0 °F 41.3 °F 38.7 °F 85% 30.09 in 5.0 mi SW 3.5 mph - N/A   Overcast
8:15 AM 43.0 °F - 38.8 °F 85% 30.10 in 5.0 mi Calm Calm - N/A   Overcast
8:35 AM 43.2 °F - 39.2 °F 86% 30.10 in 5.0 mi Calm Calm - N/A   Overcast
8:55 AM 44.1 °F - 39.6 °F 84% 30.10 in 5.0 mi Calm Calm - N/A   Overcast
9:15 AM 44.6 °F 43.1 °F 39.4 °F 82% 30.10 in 5.0 mi WSW 3.5 mph - N/A   Haze
9:35 AM 45.3 °F 44.0 °F 39.2 °F 79% 30.10 in 7.0 mi WSW 3.5 mph - N/A   Overcast
9:55 AM 45.9 °F 44.6 °F 39.4 °F 78% 30.10 in 7.0 mi West 3.5 mph - N/A   Overcast
10:15 AM 46.4 °F 44.3 °F 39.2 °F 76% 30.10 in 10.0 mi WNW 4.6 mph - N/A   Overcast
10:35 AM 46.9 °F - 39.4 °F 75% 30.11 in 10.0 mi West 3.5 mph - N/A   Overcast
10:55 AM 47.5 °F - 39.2 °F 73% 30.12 in 10.0 mi WNW 3.5 mph - N/A   Overcast
11:16 AM 48.4 °F - 39.2 °F 71% 30.12 in 10.0 mi West 3.5 mph - N/A   Mostly Cloudy
11:35 AM 49.1 °F - 38.5 °F 67% 30.11 in 10.0 mi NNW 3.5 mph - N/A   Mostly Cloudy
11:55 AM 48.7 °F - 38.1 °F 67% 30.11 in 10.0 mi Calm Calm - N/A   Mostly Cloudy
12:15 PM 49.1 °F - 40.3 °F 72% 30.10 in 10.0 mi North 6.9 mph - N/A   Overcast
12:35 PM 47.5 °F - 40.1 °F 76% 30.10 in 10.0 mi North 8.1 mph - N/A   Overcast
12:56 PM 47.3 °F - 40.1 °F 76% 30.10 in 10.0 mi North 8.1 mph - N/A   Overcast
1:15 PM 47.3 °F - 39.7 °F 75% 30.10 in 10.0 mi NNW 6.9 mph - N/A   Overcast
1:35 PM 46.8 °F - 38.8 °F 74% 30.10 in 10.0 mi North 6.9 mph - N/A   Overcast
1:55 PM 46.6 °F - 39.0 °F 75% 30.09 in 10.0 mi NNW 4.6 mph - N/A   Overcast
2:15 PM 46.9 °F - 38.7 °F 73% 30.09 in 10.0 mi NNW 4.6 mph - N/A   Overcast
2:35 PM 46.9 °F - 38.1 °F 71% 30.09 in 10.0 mi North 4.6 mph - N/A   Overcast
2:55 PM 47.1 °F - 38.7 °F 72% 30.09 in 10.0 mi North 5.8 mph - N/A   Overcast
3:16 PM 46.0 °F 44.8 °F 39.2 °F 77% 30.09 in 7.0 mi North 3.5 mph - N/A   Overcast
3:35 PM 45.7 °F 43.4 °F 39.6 °F 79% 30.09 in 7.0 mi North 4.6 mph - N/A   Overcast
3:55 PM 45.7 °F - 39.2 °F 78% 30.10 in 10.0 mi Calm Calm - N/A   Overcast
4:16 PM 45.7 °F - 39.4 °F 79% 30.10 in 10.0 mi Calm Calm - N/A   Overcast
4:35 PM 45.5 °F - 40.1 °F 81% 30.10 in 10.0 mi Calm Calm - N/A   Overcast
4:55 PM 45.1 °F - 40.1 °F 82% 30.10 in 10.0 mi Calm Calm - N/A   Overcast
5:15 PM 45.0 °F 43.5 °F 40.3 °F 84% 30.10 in 10.0 mi NW 3.5 mph - N/A   Overcast
5:35 PM 44.8 °F - 40.1 °F 84% 30.11 in 10.0 mi Calm Calm - N/A   Overcast
5:55 PM 44.8 °F - 40.1 °F 84% 30.12 in 10.0 mi Calm Calm - N/A   Overcast
6:15 PM 44.6 °F - 40.1 °F 84% 30.12 in 10.0 mi Calm Calm - N/A   Overcast
6:35 PM 44.6 °F - 39.9 °F 84% 30.13 in 10.0 mi Calm Calm - N/A   Overcast
6:56 PM 44.6 °F - 39.7 °F 83% 30.13 in 10.0 mi Calm Calm - N/A   Overcast
7:15 PM 43.9 °F - 39.6 °F 85% 30.14 in 10.0 mi Calm Calm - N/A   Overcast
7:35 PM 43.9 °F 42.3 °F 39.6 °F 85% 30.14 in 10.0 mi North 3.5 mph - N/A   Overcast
7:55 PM 44.6 °F 43.1 °F 39.7 °F 83% 30.14 in 10.0 mi North 3.5 mph - N/A   Overcast
8:15 PM 44.6 °F 43.1 °F 39.6 °F 82% 30.14 in 10.0 mi North 3.5 mph - N/A   Overcast
8:35 PM 44.8 °F 42.4 °F 39.2 °F 81% 30.14 in 10.0 mi NNE 4.6 mph - N/A   Overcast
8:55 PM 44.8 °F 43.3 °F 39.0 °F 80% 30.15 in 10.0 mi NNE 3.5 mph - N/A   Overcast
9:14 PM 44.6 °F - 39.2 °F 81% 30.15 in 10.0 mi Calm Calm - N/A   Overcast
9:36 PM 44.2 °F 42.7 °F 39.2 °F 82% 30.15 in 10.0 mi NNE 3.5 mph - N/A   Overcast
9:55 PM 44.6 °F 43.1 °F 38.8 °F 80% 30.15 in 10.0 mi NNE 3.5 mph - N/A   Overcast
10:15 PM 44.1 °F - 38.7 °F 81% 30.15 in 10.0 mi Calm Calm - N/A   Overcast
10:36 PM 44.1 °F 42.5 °F 38.8 °F 82% 30.15 in 10.0 mi North 3.5 mph - N/A   Overcast
10:55 PM 44.1 °F - 39.2 °F 83% 30.15 in 10.0 mi Calm Calm - N/A   Overcast
11:15 PM 44.1 °F - 39.2 °F 83% 30.15 in 10.0 mi Calm Calm - N/A   Overcast
11:35 PM 44.1 °F - 39.6 °F 84% 30.15 in 10.0 mi Calm Calm - N/A   Overcast